SCP
0 0 0 0 0 0 0 0 0 0 0 0 0 0 0 0 0 0 0 0 0 0 0 0 0 0 0 0 0 0 0 0 0 0 0 0 1 0 1 1 0 0 0
0 0 0 0 0 0 0 0 0 0 0 0 0 0 0 0 0 0 0 0 0 0 0 0 0 0 0 0 0 0 0 0 0 0 0 0 0 0 1 1 1 1 1
0 0 0 0 0 0 0 0 0 0 0 0 0 0 0 0 0 0 0 0 0 0 0 0 0 0 0 0 0 0 0 0 0 0 0 0 0 0 1 1 1 1 1
0 0 0 0 0 0 0 0 0 0 0 0 0 0 0 0 0 0 0 0 0 0 0 0 0 0 0 0 0 0 0 0 0 0 0 0 0 0 1 1 1 1 1
0 0 0 0 0 0 0 0 0 0 0 0 0 0 0 0 0 0 0 0 0 0 0 0 0 0 0 0 0 0 0 0 0 0 0 0 0 0 1 1 1 1 1
0 0 0 0 0 0 0 0 0 0 0 0 0 0 0 0 0 0 0 0 0 0 0 0 0 0 0 0 0 0 0 0 0 0 0 0 0 0 1 1 1 1 1
0 0 0 0 0 0 0 0 0 0 0 0 0 0 0 0 0 0 0 0 0 0 0 0 0 0 0 0 0 0 0 0 0 0 0 0 0 0 1 1 1 1 1
0 0 0 0 0 0 0 0 0 0 0 0 0 0 0 0 0 0 0 0 0 0 0 0 0 0 0 0 0 0 0 0 0 0 0 0 0 0 0 1 1 1 1
0 0 0 -0 -0 0 0 0 0 0 0 0 0 0 0 0 0 0 0 0 0 0 0 0 0 0 0 0 0 0 0 0 0 0 0 0 0 0 0 0 1 1 1
0 0 0 -0 -0 -0 0 0 0 0 0 0 0 0 0 0 0 0 0 0 0 0 0 0 0 0 0 0 0 0 0 0 0 0 0 0 0 0 0 0 0 1 1
0 0 0 -0 -0 -0 0 0 0 0 0 0 0 0 0 0 0 0 0 0 0 0 0 0 0 0 0 0 0 0 0 0 0 0 0 0 0 0 0 0 0 0 1
0 0 0 -0 -0 0 0 0 0 0 0 0 0 0 0 0 0 0 0 0 0 0 0 0 0 0 0 0 0 0 0 0 0 0 0 0 0 0 0 0 0 0 0
0 0 0 0 0 0 0 0 0 0 0 0 0 0 0 0 0 0 0 0 0 0 0 0 0 0 0 0 0 0 0 0 0 0 0 0 0 0 0 0 0 0 0
0 0 0 0 0 0 0 0 0 0 0 0 0 0 0 0 0 0 0 0 0 0 0 0 0 0 0 0 0 0 0 0 0 0 0 0 0 0 0 0 0 0 0
0 0 0 0 0 0 0 0 0 0 0 0 0 0 0 0 0 0 0 0 0 0 0 0 0 0 0 0 0 0 0 0 0 0 0 0 0 0 0 0 0 0 0
0 0 0 0 0 0 0 0 0 0 0 0 0 0 0 0 0 0 0 0 0 0 0 0 0 0 0 0 0 0 0 0 0 0 0 0 0 0 0 0 0 0 0
0 0 0 0 0 0 0 0 0 0 0 0 0 0 0 0 0 0 0 0 0 0 0 0 0 0 0 0 0 0 0 0 0 0 0 0 0 0 0 0 0 0 0
0 0 0 0 0 0 0 0 0 0 0 0 0 0 0 0 0 0 0 0 0 0 0 0 0 0 0 0 0 0 0 0 0 0 0 0 0 0 0 0 0 0 0
0 0 0 0 0 0 0 0 0 0 0 0 0 0 0 0 0 0 0 0 0 0 0 0 0 0 0 0 0 0 0 0 0 0 0 0 0 0 0 0 0 0 0
0 0 0 0 0 0 0 0 0 0 0 0 0 0 0 0 0 0 0 0 0 0 0 0 0 0 0 0 0 0 0 0 0 0 0 0 0 0 0 0 0 0 0
0 0 0 0 0 0 0 0 0 0 0 0 0 0 0 0 0 0 0 0 0 0 0 0 0 0 0 0 0 0 0 0 0 0 0 0 0 0 0 0 0 0 0
0 0 0 0 0 0 0 0 0 0 0 0 0 0 0 0 0 0 0 0 0 0 0 0 0 0 0 0 0 0 0 0 0 0 0 0 0 0 0 0 0 0 0
0 0 0 0 0 0 0 0 0 0 0 0 0 0 0 0 0 0 0 0 0 0 0 0 0 0 0 0 0 0 0 0 0 0 0 0 0 0 0 0 0 0 0
0 0 0 0 0 0 0 0 0 0 0 0 0 0 0 0 0 0 0 0 0 0 0 0 0 0 0 0 0 0 0 0 0 0 0 0 0 0 0 0 0 0 0
0 0 0 0 0 0 0 0 0 0 0 0 0 0 0 0 0 0 0 0 0 0 0 0 0 0 0 0 0 0 0 0 0 0 0 0 0 0 0 0 0 0 0
0 0 0 0 0 0 0 0 0 0 0 0 0 0 0 0 0 0 0 0 0 0 0 0 0 0 0 0 0 0 0 0 0 0 0 0 0 0 0 0 0 0 0
Wind_Speed
11 14 20 21 22 22 23 23 24 24 24 25 25 25 25 26 26 26 26 27 27 26 26 26 26 26 26 26 26 25 25 25 24 23 22 19 15 14 13 12 10 9 6
11 13 17 20 21 22 22 23 23 24 24 24 25 25 25 25 25 25 26 26 26 26 26 26 26 26 26 26 25 25 25 25 25 25 24 19 13 12 13 13 11 9 8
11 12 15 20 20 21 22 22 23 23 24 24 25 25 25 26 26 26 26 26 26 26 26 26 26 26 25 25 25 25 25 25 26 26 24 15 12 11 12 13 13 13 12
11 11 14 19 20 20 21 22 22 23 23 24 24 25 25 26 26 26 26 26 25 25 25 25 25 26 26 25 25 25 25 25 26 25 15 14 14 13 14 15 15 14 13
10 11 14 19 19 20 21 21 22 22 23 23 24 24 25 25 26 25 26 25 25 25 25 25 25 26 26 26 26 25 25 25 26 21 15 14 14 16 17 17 16 16 15
10 12 14 19 19 20 21 21 21 22 22 23 23 24 24 25 25 25 25 25 25 25 25 25 25 25 25 26 26 26 25 25 24 16 14 14 13 17 21 20 18 17 17
10 11 13 18 19 19 20 21 21 21 22 22 23 24 24 24 25 24 25 25 25 25 25 25 25 25 25 25 26 26 26 26 20 16 14 13 14 19 22 22 21 19 18
10 10 10 15 17 18 19 20 20 20 21 21 22 23 23 23 24 24 24 25 25 25 25 25 25 25 25 25 25 25 25 24 19 16 14 14 16 20 22 23 23 21 19
9 9 10 11 12 14 16 18 18 18 19 20 20 22 22 22 22 22 23 24 25 25 26 26 26 26 25 25 25 24 25 25 18 12 15 12 16 21 23 24 24 23 21
8 9 10 11 11 11 10 14 16 16 18 18 19 21 21 19 20 21 21 24 25 25 25 25 26 26 26 24 23 23 24 21 14 14 11 12 19 22 24 24 24 24 23
7 8 10 11 11 10 10 10 12 13 15 16 15 19 18 13 14 15 19 23 24 24 24 24 25 26 25 21 21 22 20 10 15 12 11 16 21 23 24 24 24 24 24
8 9 9 10 10 10 8 8 8 8 10 11 12 14 12 12 11 14 18 20 21 22 22 22 24 22 18 13 16 18 10 14 13 11 11 20 23 24 24 24 24 25 24
7 7 8 9 10 10 7 7 6 6 7 9 12 13 11 10 9 10 9 11 13 16 13 16 15 12 13 13 13 13 14 13 10 10 13 22 24 25 25 25 25 25 25
6 7 8 9 9 9 8 7 7 6 6 7 9 12 10 8 10 10 9 11 10 9 12 12 11 15 16 16 16 16 17 12 11 10 13 22 24 25 25 26 25 25 25
6 7 8 8 9 9 8 7 7 7 7 8 8 9 12 10 11 11 10 10 12 11 12 13 13 16 16 16 15 17 17 18 16 15 11 20 25 25 25 25 25 25 25
5 6 7 8 9 9 8 8 7 7 7 8 8 10 12 10 11 11 12 11 11 11 12 13 16 15 14 14 16 17 18 18 16 16 15 16 22 24 24 24 24 24 24
4 5 7 7 9 9 9 9 7 7 8 8 8 10 11 12 12 12 11 11 11 12 14 13 15 14 14 14 17 17 16 17 17 18 17 14 14 18 21 21 21 21 22
3 5 6 6 9 10 9 9 7 7 8 8 8 9 12 13 14 12 11 12 13 13 12 13 13 13 14 14 15 14 14 15 18 18 16 14 12 11 14 16 17 19 20
2 4 6 7 9 10 10 8 8 8 8 7 8 8 11 13 14 13 11 12 14 12 12 13 13 14 15 15 15 15 15 15 16 17 16 15 13 11 10 12 15 17 18
1 3 5 7 9 9 8 7 7 8 7 7 8 9 13 12 14 13 11 13 14 12 12 13 16 15 14 15 15 16 15 16 15 14 14 12 10 10 9 10 10 11 15
1 3 5 7 8 8 7 8 8 9 8 7 7 11 12 13 14 13 11 13 13 12 14 16 15 17 15 14 15 15 15 16 15 10 9 9 9 8 9 10 9 9 8
1 2 5 7 8 8 7 7 7 8 7 7 7 9 11 13 14 12 14 13 13 13 16 16 16 14 14 13 13 15 13 13 6 8 10 9 9 8 9 11 11 11 10
1 2 4 6 7 7 8 6 7 6 6 7 9 8 11 13 13 14 15 14 15 14 14 16 16 17 15 14 12 11 10 9 13 10 11 8 9 9 10 10 12 12 12
2 1 3 5 6 7 8 8 10 8 9 10 9 9 13 13 13 14 15 15 15 14 16 16 16 15 16 13 12 11 11 13 11 10 9 11 13 12 11 10 11 12 11
3 0 3 5 6 7 7 8 9 9 8 8 10 12 12 12 13 14 15 15 15 14 16 17 16 16 13 13 12 11 12 12 13 13 14 12 11 10 10 11 10 10 10
4 1 2 4 5 6 7 8 9 10 11 12 12 12 11 10 11 14 15 15 15 14 15 16 15 16 14 14 13 11 11 11 11 11 13 13 12 11 12 10 10 9 8
Wind_Direction
353 350 350 359 8 12 14 15 16 16 16 15 15 15 13 12 10 10 8 6 4 3 2 1 0 358 358 357 356 354 351 350 349 347 340 328 314 309 310 310 293 272 259
347 350 351 4 10 13 15 16 16 16 16 15 14 14 13 11 10 9 7 5 3 1 359 359 358 356 355 354 353 351 349 348 346 344 335 318 303 301 304 304 297 289 293
0 355 356 10 12 14 16 16 16 16 16 15 14 13 12 10 9 8 7 4 1 360 358 357 355 353 352 351 349 347 346 345 344 340 327 317 315 306 305 303 297 283 274
9 2 4 11 14 16 17 17 17 16 16 15 14 12 11 9 7 6 5 2 360 358 356 355 353 351 350 348 346 344 343 342 342 333 326 327 320 315 312 305 298 289 276
19 12 9 14 16 18 18 17 17 16 15 14 13 11 10 8 6 4 3 360 358 357 355 353 351 349 347 345 343 342 341 340 337 325 328 327 320 318 318 308 299 292 283
26 19 15 17 19 20 20 18 18 16 15 13 11 9 8 6 3 1 1 357 355 354 353 351 348 346 344 342 340 339 339 339 330 325 325 321 319 322 322 314 302 291 282
28 22 20 21 21 21 21 19 17 15 14 11 9 7 5 2 360 358 358 354 352 352 350 349 346 344 342 340 337 335 335 334 326 319 318 315 314 319 319 318 312 299 284
29 24 24 23 22 21 20 19 15 13 11 9 6 4 2 359 357 355 355 351 349 348 346 345 343 341 339 337 334 332 331 329 321 313 313 308 309 316 317 317 316 308 295
31 27 24 21 20 19 18 16 12 10 8 7 5 2 359 355 353 352 352 348 346 345 343 341 339 337 336 333 329 328 328 324 311 309 309 303 311 314 314 313 312 312 305
36 30 23 22 17 9 8 13 6 6 5 4 3 360 356 351 350 348 348 345 343 342 340 338 336 334 332 328 325 325 324 315 309 311 303 302 310 310 309 308 308 307 306
41 34 24 19 14 5 0 360 358 1 3 359 359 357 353 348 346 343 343 340 340 338 336 334 333 331 329 324 323 323 317 311 313 302 298 301 305 306 304 303 303 303 301
34 30 24 18 11 3 356 351 354 357 356 358 355 352 347 343 339 338 334 335 335 333 332 332 330 327 327 322 322 321 312 312 306 299 297 301 302 302 300 299 299 297 297
35 29 23 16 8 2 354 349 352 350 350 351 351 349 342 339 334 335 332 331 331 330 331 329 326 326 322 319 314 311 309 308 301 299 297 299 298 298 297 296 294 292 290
37 27 20 12 6 359 352 347 350 348 346 345 344 345 343 337 333 333 328 327 327 326 325 323 319 318 316 312 310 308 306 303 299 297 292 294 295 295 294 292 289 286 285
37 27 18 3 2 355 349 343 346 347 344 341 340 342 343 334 331 329 323 323 321 320 320 319 316 316 312 310 306 305 303 301 297 292 289 290 291 291 290 287 285 283 281
37 24 10 359 359 350 346 344 344 343 341 338 338 340 339 333 327 323 319 319 317 318 318 313 312 311 309 307 304 303 300 297 293 292 289 289 286 286 285 284 283 281 279
40 17 8 353 351 346 343 344 341 342 340 338 337 335 336 333 327 324 318 317 317 318 315 311 310 308 307 306 303 301 298 295 293 291 288 284 283 281 278 279 281 281 280
38 11 4 350 342 344 343 341 340 340 340 337 335 333 338 336 332 326 321 318 319 316 313 311 309 309 307 305 303 301 298 294 291 289 286 280 276 276 278 277 281 284 284
36 4 354 349 343 343 340 338 338 339 339 338 337 339 340 336 334 328 321 318 320 316 312 310 310 309 306 305 302 300 296 292 290 286 280 276 271 272 276 282 285 284 285
75 358 350 347 346 343 340 338 337 341 341 341 341 341 337 334 333 328 319 320 319 313 311 311 310 306 303 303 302 299 296 290 280 274 275 275 272 273 279 290 292 285 282
185 350 351 346 349 348 345 343 340 340 335 337 337 334 332 331 329 325 320 318 316 312 310 308 307 306 305 305 303 303 299 285 272 270 279 285 280 282 288 290 290 293 291
214 352 347 349 347 350 346 337 329 323 322 325 328 328 330 329 325 321 318 315 313 310 308 307 307 304 302 304 305 307 307 301 281 317 295 280 283 293 293 290 293 290 289
199 6 348 344 340 345 342 332 327 322 321 332 333 329 328 324 320 318 315 314 311 309 306 306 305 302 302 302 295 296 299 304 326 296 292 294 303 302 295 294 291 289 287
152 55 336 334 335 343 340 337 337 333 333 333 329 322 322 322 320 319 317 315 311 308 305 305 303 300 297 295 295 288 279 287 291 299 300 303 300 295 294 293 294 289 283
150 171 322 324 330 340 340 337 333 330 328 325 325 323 324 323 321 321 322 319 316 312 308 305 302 298 294 291 291 291 286 282 272 274 288 296 297 295 294 293 289 284 285
165 202 297 314 328 338 337 336 333 330 329 326 328 327 327 323 322 326 327 323 320 316 312 308 304 299 293 289 288 285 283 280 281 282 287 294 296 298 295 290 285 282 285